User: anonymous   Login
Location: Cranbrook Institute of Science
(42.5830°N, 83.2450°W)
Time: 17:15:35
(UTC-05:00)
Language:

ATLAS 5 CENTAUR R/B - Orbit

View from above orbital plane
View from above orbital plane
View from above satellite
View from above satellite

Ground track
Ground track

The orbit data is extracted from the following two-line orbital elements,

1 31702U 07027B   16345.17594955 0.00000000  00000-0  00000-0 0    06
2 31702  63.3712  53.5157 0250315   1.9218 358.0782 14.18527768    02
Epoch (UTC): 10 December 2016 04:13:22
Eccentricity: 0.0250315
inclination: 63.3712°
perigee height: 650 km
apogee height: 1011 km
right ascension of ascending node: 53.5157°
argument of perigee: 1.9218°
revolutions per day: 14.18527768
mean anomaly at epoch: 358.0782°
orbit number at epoch: 0

The dashed part of the orbit path shows where the satellite is in the earth's shadow,  

DLR